Dewpoint
10 11 12 13 14 13 13 13 15 15 14 13 13 13 13 13 13 13 13 13 13 13 13 13 13 13 13 14 14 14 14 14 14 16 17 17 16 16 17 17 17 18 18 19 20 20 22 23 25 25 25 25 26 26 27 27 29 32 34 34 34 35 35 34 34 34 34 34 35
10 11 12 14 14 13 12 13 13 14 14 13 13 13 13 13 13 12 12 12 12 13 13 13 13 13 13 14 14 14 14 14 14 15 16 16 16 16 17 17 17 18 18 19 20 20 21 23 24 24 25 25 25 26 26 27 30 32 34 34 34 35 34 34 34 34 34 35 36
10 10 11 11 11 11 11 11 12 12 13 13 13 13 13 12 12 12 12 12 12 12 12 12 12 13 13 14 14 14 14 14 15 16 16 16 16 16 17 17 17 18 19 19 20 20 21 22 23 24 25 25 25 26 28 30 33 34 34 34 34 34 34 33 33 34 34 35 36
10 10 10 11 11 11 11 11 12 12 12 13 12 12 12 12 12 12 12 12 12 12 12 12 12 12 13 14 14 14 15 16 16 16 16 16 16 17 17 17 18 18 18 19 20 20 20 22 23 23 24 25 25 27 29 31 33 34 33 33 33 33 33 33 34 34 35 36 36
10 10 10 10 11 11 11 12 12 12 12 12 12 12 11 11 11 11 11 11 11 12 12 12 12 13 13 14 14 14 15 16 18 18 16 16 16 17 17 17 18 18 18 19 20 20 20 22 22 23 24 25 26 27 29 32 32 32 31 31 32 32 32 33 34 35 35 36 36
10 10 10 10 10 11 11 12 12 12 12 12 12 11 11 11 11 11 11 11 11 12 13 14 14 14 14 14 15 15 16 16 17 17 16 16 16 17 17 17 17 18 18 19 20 20 21 22 22 23 24 25 26 28 29 31 31 30 30 29 30 31 32 33 34 35 35 35 35
10 10 10 10 10 11 11 12 12 12 12 11 11 11 11 11 11 12 12 11 11 12 13 14 14 14 14 14 15 15 16 16 16 17 16 16 16 17 17 17 18 18 19 19 20 20 21 22 22 23 24 25 26 27 29 30 29 29 29 29 29 31 32 34 34 35 35 34 34
10 10 10 11 11 11 11 12 12 12 12 11 11 11 11 11 12 12 12 11 11 12 13 13 12 13 14 14 15 16 16 16 16 16 16 16 17 17 17 17 18 18 19 19 20 20 21 22 22 23 24 25 25 26 28 29 29 29 29 29 29 31 32 34 35 35 34 34 33
10 10 11 11 11 12 12 12 12 12 12 12 11 11 12 13 13 12 12 11 12 13 13 12 13 13 14 15 16 16 16 17 17 17 16 16 17 17 17 18 18 19 19 19 20 20 20 22 22 23 24 25 25 26 28 29 29 29 29 29 29 30 32 34 34 34 34 33 33
10 10 10 11 11 12 13 13 13 13 12 12 12 12 13 15 14 13 12 12 13 13 12 12 13 14 15 16 16 16 17 17 17 17 17 17 17 18 18 18 19 19 19 19 20 20 21 22 22 23 24 25 26 27 28 28 28 28 28 28 29 30 31 33 34 34 33 33 33
10 10 10 11 11 13 13 13 13 13 13 12 12 12 12 14 13 13 13 14 13 13 13 13 14 15 16 16 16 17 17 17 17 17 18 18 18 18 18 19 19 19 19 19 20 20 21 22 22 22 23 24 25 26 27 28 28 28 28 28 29 29 30 32 33 33 33 33 33
10 10 10 11 11 12 13 13 13 12 12 12 12 12 12 12 13 14 14 14 13 13 13 14 15 15 16 16 17 17 17 17 17 17 18 18 18 19 19 19 20 19 19 20 20 21 21 22 23 23 24 24 25 26 27 27 27 27 27 28 28 29 30 32 33 33 33 33 33
11 11 11 11 11 12 12 13 13 13 12 12 12 12 13 13 14 14 14 14 14 14 14 15 16 16 16 16 17 17 17 17 17 18 18 18 18 19 19 20 20 20 20 20 21 21 22 23 24 25 25 25 25 26 27 27 27 27 27 27 28 29 30 32 33 33 33 33 33
11 11 11 11 12 12 12 13 13 13 13 13 13 13 14 14 15 15 15 14 14 15 15 15 16 16 16 17 17 17 17 18 18 18 18 18 18 18 19 20 21 22 22 22 23 23 23 24 24 25 25 26 26 26 27 27 27 27 27 27 28 29 30 32 33 33 32 32 32
11 11 11 12 12 12 13 13 13 14 14 14 14 15 15 15 16 16 16 15 15 15 15 16 16 17 17 17 17 17 17 18 18 18 18 18 18 19 19 20 21 23 24 24 25 25 25 25 25 25 25 26 26 26 27 27 27 27 27 27 28 29 31 32 32 32 32 32 32
12 12 12 13 13 13 13 14 14 14 14 15 15 16 16 16 16 17 17 16 16 16 16 16 16 17 17 18 18 17 17 18 18 18 18 18 19 20 20 21 22 23 24 24 25 25 25 26 26 26 26 26 26 26 27 27 27 27 28 28 29 30 32 32 32 32 32 32 32
13 13 13 13 14 14 14 14 14 14 15 15 16 16 17 17 17 18 18 18 16 16 16 17 17 17 18 18 18 18 18 18 18 18 18 20 21 22 22 22 23 23 24 24 24 25 25 25 26 26 26 26 26 27 27 27 28 28 29 29 30 31 32 32 32 32 32 32 32
14 14 14 14 14 14 15 15 15 15 16 16 16 17 18 18 18 18 18 18 17 18 18 19 19 19 19 19 19 19 19 19 19 19 20 20 22 22 23 23 23 23 23 24 24 25 25 25 25 25 26 26 26 27 27 28 28 29 30 31 32 32 32 32 32 32 32 32 32
14 14 14 15 15 15 15 16 16 16 16 16 17 18 18 19 19 19 19 18 18 18 19 20 20 20 20 20 20 20 20 20 20 20 21 21 22 22 22 22 23 23 23 24 24 24 25 25 25 25 25 26 26 27 27 28 29 30 31 32 32 31 31 31 31 32 32 32 32
14 14 15 15 15 16 16 16 16 16 16 16 17 18 19 20 20 20 20 20 18 19 19 20 20 20 20 20 20 20 20 21 21 21 21 21 22 22 22 22 22 22 23 23 24 24 24 24 24 25 25 25 26 27 28 28 30 30 31 31 31 31 31 31 31 32 32 32 32
14 15 15 15 16 16 16 16 16 17 17 18 18 19 20 20 20 20 20 20 19 19 20 20 20 20 20 20 20 20 20 20 20 20 21 21 21 21 21 22 22 22 23 23 24 24 24 24 24 25 26 27 28 28 29 29 29 29 28 28 29 30 30 31 31 31 32 32 32
14 15 15 16 16 16 16 16 16 16 17 17 18 19 20 20 20 20 20 20 20 20 20 20 20 20 20 20 19 19 19 19 19 20 20 20 21 21 21 22 22 22 23 23 23 24 24 25 25 27 28 29 30 30 30 30 28 26 26 26 28 29 30 30 30 31 31 32 32
15 16 16 16 17 17 17 16 16 16 17 17 18 19 20 20 20 19 19 19 20 20 20 20 20 20 20 19 19 18 18 18 18 18 19 19 20 20 20 21 21 22 22 23 23 23 24 25 27 29 31 31 32 31 30 29 28 26 25 27 28 29 29 30 30 31 31 32 31
16 16 16 16 17 18 17 17 16 16 17 18 18 19 19 19 19 19 19 19 20 20 20 20 20 20 20 19 19 18 17 17 17 17 17 18 19 19 20 20 21 21 21 22 23 25 27 28 30 31 32 31 31 30 29 29 27 26 26 28 29 29 29 29 30 31 31 31 31
16 16 17 17 17 17 17 17 17 17 17 17 17 18 18 18 18 18 19 19 19 19 20 20 20 20 20 19 18 17 17 16 16 16 16 17 18 19 19 20 20 20 19 20 25 29 31 33 34 33 31 30 28 27 26 26 25 27 28 29 29 29 28 29 29 30 31 31 31
15 16 16 16 16 16 16 16 16 16 16 16 16 17 17 18 18 18 18 18 18 18 19 19 19 20 20 18 17 16 16 15 15 16 16 16 17 18 18 19 19 19 20 24 28 31 33 36 37 34 30 28 26 25 25 25 26 29 30 30 30 29 28 27 28 29 30 31 31
14 14 15 14 15 15 15 15 15 16 16 15 16 16 16 17 17 17 18 17 17 17 17 18 18 19 19 16 16 15 14 13 14 15 16 16 17 17 17 18 19 20 23 26 29 32 34 38 37 32 28 28 26 25 25 25 28 30 31 31 30 29 27 26 27 28 29 30 30
14 14 14 14 13 13 13 14 15 15 15 15 15 15 16 16 17 17 16 16 16 16 16 16 17 17 16 15 15 14 13 12 12 13 14 15 16 16 16 17 19 21 24 27 30 33 35 38 36 30 26 26 25 25 27 29 30 31 31 31 30 28 26 25 27 28 28 29 29
14 14 14 13 13 13 13 13 14 14 14 14 15 15 15 16 16 16 15 15 14 14 14 15 15 15 15 14 14 13 13 12 12 12 12 13 13 14 15 16 17 20 24 28 30 34 36 38 35 31 27 28 27 27 28 30 30 31 31 31 29 27 25 25 26 27 27 27 27
15 14 14 13 13 13 12 13 13 14 13 14 14 14 14 15 15 14 14 13 13 14 15 15 15 14 14 14 14 13 12 12 12 12 12 13 13 14 14 16 17 20 24 28 31 34 37 38 36 32 30 31 29 29 29 29 30 30 30 30 29 26 25 25 25 25 26 26 26
15 14 14 13 13 12 12 12 13 13 13 13 13 13 13 13 13 13 13 13 14 15 16 16 15 14 13 14 13 13 12 12 12 12 12 12 13 14 14 14 16 19 23 28 31 34 37 38 36 34 33 32 30 29 29 29 30 30 30 30 28 26 25 25 25 25 25 25 25
15 14 14 13 12 12 11 12 12 12 12 12 12 12 12 12 12 13 13 13 14 15 15 15 14 13 13 13 13 13 12 12 12 12 12 13 12 13 13 15 16 19 23 28 32 35 37 37 37 36 34 33 31 29 29 29 29 30 31 31 29 28 26 25 25 25 25 25 25
15 14 13 12 11 11 11 12 12 12 11 11 12 12 12 12 13 13 13 14 14 14 14 14 13 13 13 13 13 12 12 12 12 13 13 13 13 12 13 15 16 20 24 28 32 35 36 36 36 36 35 34 31 29 29 29 29 30 31 31 31 30 29 28 26 26 25 25 25
14 13 12 11 11 11 11 11 11 11 11 11 11 11 11 12 13 13 14 15 14 14 13 13 12 12 12 12 13 13 13 14 12 11 11 12 12 12 13 15 16 20 25 28 32 35 35 35 34 34 34 34 31 29 29 29 29 29 30 31 31 31 31 30 29 28 26 25 25
13 12 11 11 11 10 10 11 11 11 10 10 11 11 11 12 13 14 15 16 15 14 13 12 12 12 12 13 13 13 13 13 11 11 11 12 12 13 14 15 16 20 24 27 32 34 35 34 32 32 32 31 30 29 29 29 29 29 30 30 29 29 28 29 29 29 28 26 25
12 11 11 11 10 10 9 10 10 10 10 10 11 11 12 13 13 14 15 16 15 13 12 12 11 11 12 12 13 14 14 12 11 11 11 12 12 13 14 15 15 18 23 27 32 34 34 34 32 30 29 28 28 28 28 28 28 29 29 27 25 24 24 24 25 26 27 27 26
12 11 11 10 10 9 9 9 9 9 9 10 11 12 13 13 14 14 15 15 13 12 11 11 11 11 11 12 13 13 13 12 11 11 11 12 12 13 15 15 14 16 21 28 31 33 34 34 32 30 27 25 25 26 27 27 26 26 25 24 22 21 21 21 22 24 25 26 26
12 11 11 11 10 9 9 10 10 10 10 11 12 13 13 13 13 13 14 15 12 11 11 11 11 11 11 13 13 13 12 12 12 12 11 11 12 14 15 14 14 16 20 27 31 32 33 34 33 30 27 23 22 24 25 25 24 22 22 21 21 20 20 20 20 21 23 25 27
12 12 11 11 10 10 10 10 10 10 11 12 13 13 13 12 12 13 13 13 11 11 10 10 11 11 12 14 14 13 12 11 12 12 11 11 12 16 17 14 14 16 20 27 30 31 32 34 33 30 27 23 21 21 22 22 21 20 20 20 20 20 20 20 20 20 20 22 25
11 11 11 10 10 10 10 10 10 11 12 13 13 12 12 12 12 12 12 12 11 11 10 10 11 11 13 16 15 14 12 11 11 11 12 12 14 17 18 15 14 15 19 26 29 30 30 31 32 31 27 23 21 20 20 20 20 20 20 20 20 20 20 19 19 18 18 19 22
10 10 10 10 10 10 11 11 11 12 13 13 12 12 12 12 11 11 11 11 11 10 10 10 11 12 14 16 16 15 14 12 11 11 12 14 15 16 17 15 14 15 18 24 28 29 28 29 30 30 28 23 21 20 20 19 19 20 20 20 20 20 19 19 18 18 17 17 18